Погода в Таранто

Италия     40°27′41″N   17°15′21″E
темп.,
°C
ветер,
м/с
пор.,
м/с
влажн.,
%
обл.,
%
осадки,
мм/ч
давл.,
гПа
погр.,
м
11 апреля, вс
вс1123:00+10юв3572100 0.0 1024216
02:00+10юв3678100 0.0 1023220
05:00+10юв488351 0.0 1022300
08:00+13ююв587711 0.0 1022689
11:00+15ююв786864 0.0 1023853
14:00+16ююв7866100 0.0 1022833
17:00+15ююв7772100 0.0 1022675
20:00+13юв488778 0.0 1023436
12 апреля, пн
пн1223:00+12юв51089100 0.0 1022547
02:00+12ююв6109097 0.0 1022568
05:00+12ююв51090100 0.0 1021497
08:00+13ююв7118347 0.0 1021690
11:00+15ююв897197 0.0 1021782
14:00+16ююв8967100 0.0 1020767
17:00+14ююв71075100 0.0 1019510
20:00+13ююв4882100 0.0 1019450
13 апреля, вт
вт1323:00+13ю3687100 0.0 1019279
02:00+13юв369013 0.1 1018231
05:00+12юв379426 0.0 1017185
08:00+14ююв6888100 0.0 1016522
11:00+16ю69595 0.0 1016733
14:00+17ю8116429 0.2 1015775
17:00+17юз46480 0.7 1013789
20:00+13з48604 0.7 1014325
14 апреля, ср
ср1423:00+13сз366098 0.1 1015420
02:00+10сз5107511 0.1 1016450
05:00+9сз812777 0.0 1016514
08:00+9сз711676 0.0 1017874
11:00+12сз10115718 0.0 10181304
14:00+14сз9104623 0.0 10171639
17:00+13сз910456 0.0 10171683
20:00+10сз8125320 0.0 1019990
15 апреля, чт
чт1523:00+8сз612610 0.0 1020671
02:00+7сз511671 0.0 1020423
05:00+6сз510700 0.0 1020339
08:00+9сз59600 0.0 1020485
11:00+14сз45392 0.0 10201420
14:00+15з3436100 0.0 10191676
17:00+13юз435274 0.0 1019780
20:00+11з016218 0.0 1020170